Skip Page Navigation
NASA JPL Caltech
NASA Logo - Jet Propulsion Laboratory + View the NASA Portal
+ Center for Near-Earth Object Studies
JPL Home Earth Solar System Stars & Galaxies Technology
JPL Solar System Dynamics
BODIES ORBITS EPHEMERIDES TOOLS PHYSICAL DATA DISCOVERY FAQ SITE MAP
JPL Small-Body Database Browser
Search: [ help ]  
452770 (2006 CA47)
Classification: Main-belt Asteroid          SPK-ID: 2452770
Ephemeris | Orbit Diagram | Orbital Elements | Mission Design | Physical Parameters | Discovery Circumstances ]

[ show orbit diagram ]
Orbital Elements at Epoch 2459000.5 (2020-May-31.0) TDB
Reference: JPL 9 (heliocentric ecliptic J2000)
 Element Value Uncertainty (1-sigma)   Units 
e .1569361077900539 1.3618e-07  
a 2.279362273646935 2.3233e-08 au
q 1.921648030177297 3.1941e-07 au
i 3.777516361110848 1.1229e-05 deg
node 356.7173600547388 0.00013382 deg
peri 87.73004484994721 0.00017061 deg
M 97.57979818162973 8.5478e-05 deg
tp 2458659.797064507468
(2019-Jun-25.29706451)
0.00029546 TDB
period 1256.951326636398
3.44
1.9218e-05
5.262e-08
d
yr
n .286407271603237 4.379e-09 deg/d
Q 2.637076517116573 2.6879e-08 au
  Orbit Determination Parameters
   # obs. used (total)      53  
   data-arc span      5171 days (14.16 yr)  
   first obs. used      2006-01-25  
   last obs. used      2020-03-23  
   planetary ephem.      DE431  
   SB-pert. ephem.      SB431-N16  
   condition code      0  
   norm. resid. RMS      .64844  
   source      ORB  
   producer      Otto Matic  
   solution date      2020-Nov-12 06:37:04  

Additional Information
 Earth MOID = .942138 au 
 Jupiter MOID = 2.57331 au 
 T_jup = 3.587 
[ show covariance matrix ]

Ephemeris | Orbit Diagram | Orbital Elements | Mission Design | Physical Parameters | Discovery Circumstances ]

Physical Parameter Table
Parameter Symbol Value Units Sigma Reference Notes
absolute magnitude H 18.7   n/a MPO456157  

452770 (2006 CA47)          Discovered 2006-Feb-03 by Spacewatch at Kitt Peak
Reference: Last Updated: 2016-01-04
Ephemeris | Orbit Diagram | Orbital Elements | Mission Design | Physical Parameters | Discovery Circumstances ]
ABOUT SSD CREDITS/AWARDS PRIVACY/COPYRIGHT GLOSSARY LINKS
FirstGov 2020-Nov-30 15:27 UT
(server date/time)  
NASA Home Page
Site Manager:   Ryan S. Park
Webmaster  Alan B. Chamberlin